Flag for U.S.A. Weather past 2 weeks in Baton Rouge, Louisiana, U.S.A.

Now
60 °F

Fog.


Feels Like: 60 °F
Forecast: 51 / 72 °F
Wind: 7 mph from Southeast

Location: Baton Rouge Metropolitan - Ryan Field

Current Time: Dec 22, 2014 at 10:22:52 AM

Latest Report: Dec 22, 2014 at 9:53 AM


Visibility: 1 mi

Pressure: 29.80 "Hg

Humidity: 96%

Dew point: 59 °F

Location of Baton RougeLocation

Historic Weather in Baton Rouge — Graph

°F

Baton Rouge temperature yesterday

Maximum temperature yesterday: 60 °F (at 2:53 PM)
Minimum temperature yesterday: 44 °F (at 12:04 AM)
Average temperature yesterday: 52 °F

Past Weeks' High & Low Weather Summary

 TemperatureHumidityPressure
High77 °F (Dec 15, 2:53 PM)97% (Dec 14, 6:53 AM)30.38 "Hg (Dec 14, 6:53 AM)
Low35 °F (Dec 17, 5:53 AM)28% (Dec 9, 1:53 PM)29.82 "Hg (Dec 22, 8:53 AM)
Average53 °F74%30.17 "Hg
* Reported Dec 7 8:53 AM — Dec 22 8:53 AM, Baton Rouge, Weather by CustomWeather, © 2014

Note: Actual official high and low records may vary slightly from our data, if they occured in-between our weather recording intervals... More about our weather records

Advertising

Baton Rouge weather history for previous 24 hours

 ConditionsComfort  
Time TempWeatherWind HumidityBarometerVisibility
8:53 AM
Dec 22
58 °FFog.7 mph97%29.82 "Hg1 mi
7:53 AM56 °FFog.6 mph97%29.82 "Hg0 mi
6:53 AM55 °FLight rain. Fog.6 mph96%29.83 "Hg0 mi
5:53 AM54 °FFog.No wind97%29.85 "Hg0 mi
4:53 AM54 °FFog.3 mph97%29.85 "Hg0 mi
3:53 AM54 °FFog.6 mph97%29.86 "Hg0 mi
2:53 AM54 °FFog.3 mph97%29.88 "Hg1 mi
2:03 AM53 °FFog.5 mph96%29.88 "Hg1 mi
1:53 AM53 °FFog.5 mph96%29.88 "Hg1 mi
12:53 AM53 °FFog.7 mph93%29.89 "Hg2 mi
11:53 PM
Dec 21
52 °FFog.6 mph93%29.93 "Hg3 mi
10:53 PM50 °FPartly cloudy.5 mph93%29.96 "Hg7 mi
9:53 PM51 °FPassing clouds.7 mph89%29.95 "Hg8 mi
8:53 PM52 °FOvercast.No wind89%29.97 "Hg10 mi
7:53 PM53 °FOvercast.3 mph89%29.96 "Hg10 mi
6:53 PM54 °FPassing clouds.6 mph86%29.96 "Hg10 mi
5:53 PM56 °FOvercast.5 mph81%29.96 "Hg10 mi
4:53 PM58 °FPartly sunny.No wind72%29.98 "Hg10 mi
3:53 PM59 °FPartly sunny.6 mph69%30.00 "Hg10 mi
2:53 PM60 °FPartly sunny.3 mph67%30.00 "Hg10 mi
1:53 PM59 °FSunny.3 mph67%30.01 "Hg10 mi
12:53 PM57 °FSunny.No wind69%30.04 "Hg10 mi
11:53 AM56 °FSunny.No wind72%30.08 "Hg10 mi
10:53 AM55 °FSunny.3 mph72%30.13 "Hg10 mi
Weather by CustomWeather, © 2014

See weather overviewHow to use our weather pages